Tracking 29091 objects as of 17-Jul-2024
HD Live streaming from Space Station
objects crossing your sky now

CZ-3B DEB

Track CZ-3B DEB now!


NORAD ID: 52965
Int'l Code: 2018-079GQ
Perigee: 987.1 km
Apogee: 42,821.7 km
Inclination: 24.6 °
Period: 788.6 minutes
Semi major axis: 28275 km
RCS: Unknown
Launch date: October 17, 2018
Source: People's Republic of China (PRC)
Launch site: AIR FORCE EASTERN TEST RANGE (AFETR)

Note: This is SATELLITE DEBRIS
Your satellite tracking list
Your tracking list is empty




NASA's NSSDC Master Catalog

Two Line Element Set (TLE):
1 52965U 10042AJ  24194.63074464 -.00000135  00000-0  12125-2 0  9991
2 52965  24.6306  44.1843 7397700 188.9881 140.5562  1.82595188 15400
Source of the keplerian elements: AFSPC